Regional Weather Roundup
Issued by NWS

Home | Current Version | Previous Version | Text Only | Print | Product List | Glossary On
Versions: 1 2 3 4 5 6 7 8 9 10 11 12 13 14 15 16 17 18 19 20 21 22 23 24 25 26 27
000
ASUS43 KDMX 181207
RWRIA

WEATHER ROUNDUP FOR IOWA
NATIONAL WEATHER SERVICE DES MOINES IA
700 AM CDT FRI APR 18 2014

NOTE: "FAIR" INDICATES FEW OR NO CLOUDS BELOW 12,000 FEET WITH NO
SIGNIFICANT WEATHER AND/OR OBSTRUCTIONS TO VISIBILITY.

* - THESE STATIONS ARE NOT NWS STATIONS...THUS NOT UNDER NWS
QUALITY CONTROL.  THEY ALSO DO NOT REPORT WEATHER SUCH
AS PRECIPITATION OR FOG.

IAZ001>003-012>014-020>022-031>034-043>046-181300-
   NORTHWEST IOWA

CITY           SKY/WX    TMP DP  RH WIND       PRES   REMARKS
CARROLL *      CLEAR     27  27 100 CALM      30.31R FOG
CHEROKEE *     CLEAR     32  28  86 SE3       30.29R FOG
DENISON *      CLEAR     34  30  86 SE6       30.28R WCI  29
LE MARS *      PTCLDY    34  30  86 SE12      30.26F WCI  25
ORANGE CITY *  PTCLDY    32  28  86 SE6       30.26S FOG     WCI  26
SHELDON *      CLOUDY    32  28  86 SE9       30.26S FOG     WCI  24
SIOUX CITY     CLEAR     29  25  85 SE8       30.26R WCI  21
6HR MIN TEMP:  28; 6HR MAX TEMP:  38;

SPENCER        MOCLDY    30  27  88 SE8       30.30R FOG     WCI  22
6HR MIN TEMP:  28; 6HR MAX TEMP:  32;

STORM LAKE *   CLEAR     28  28 100 SE10      30.29S FOG     WCI  19
$$

IAZ055>058-069>071-079>083-090>094-181300-
   SOUTHWEST IOWA

CITY           SKY/WX    TMP DP  RH WIND       PRES   REMARKS
ATLANTIC *     CLEAR     32  28  86 CALM      30.30R
AUDUBON *      CLEAR     30  25  80 CALM      30.30R HAZE
CLARINDA *     CLEAR     28  27  93 CALM      30.32R FOG
COUNCIL BLFS * CLEAR     32  28  86 SE5       30.27R WCI  27
CRESTON *      CLEAR     32  30  93 E6        30.30R FOG     WCI  26
HARLAN  *      CLEAR     32  30  93 SE6       30.32R WCI  26
LAMONI         CLEAR     35  31  85 E5        30.30R WCI  31
6HR MIN TEMP:  31; 6HR MAX TEMP:  41;

RED OAK *      CLEAR     30  27  86 CALM      30.30R
SHENANDOAH *   CLEAR     28  27  93 NE3       30.31R
$$

IAZ047>049-059>061-072>074-084-181300-
   CENTRAL IOWA

CITY           SKY/WX    TMP DP  RH WIND       PRES   REMARKS
AMES           CLEAR     29  26  89 CALM      30.34R FOG
6HR MIN TEMP:  27; 6HR MAX TEMP:  34;

ANKENY *       CLEAR     28  27  93 CALM      30.34R FOG
CHARITON *     CLEAR     34  30  86 E6        30.32R FOG     WCI  29
DES MOINES     PTCLDY    34  29  82 E5        30.33R HAZE    WCI  30
6HR MIN TEMP:  34; 6HR MAX TEMP:  41;

GRINNELL*      CLEAR     30  28  93 E6        30.34R FOG     WCI  24
KNOXVILLE *    CLEAR     32  28  86 CALM      30.33R
MARSHALLTOWN   CLEAR     28  26  92 E3        30.33R FOG
6HR MIN TEMP:  27; 6HR MAX TEMP:  31;

NEWTON *       CLEAR     30  28  93 E5        30.34R FOG     WCI  25
PELLA *        CLEAR     32  30  93 E5        30.35R FOG     WCI  27
PERRY *          N/A     30  28  93 E5        30.33R FOG     WCI  25
$$

IAZ004>006-015-016-023>025-035-036-181300-
   NORTH CENTRAL IOWA

CITY           SKY/WX    TMP DP  RH WIND       PRES   REMARKS
ALGONA *       CLEAR     30  28  93 SE5       30.33R FOG     WCI  25
CLARION *      CLEAR     30  28  93 E9        30.33R WCI  22
ESTHERVILLE    PTCLDY    28  28 100 SE7       30.30R FOG     WCI  21
6HR MIN TEMP:  25; 6HR MAX TEMP:  31;

FORT DODGE *   PTCLDY    27  25  93 SE5       30.33R WCI  21
MASON CITY     CLOUDY    29  28  96 SE3       30.34R FOG
6HR MIN TEMP:  22; 6HR MAX TEMP:  29;

FOREST CITY *  MOCLDY    32  32 100 CALM      30.32S FOG
IOWA FALLS *     N/A     30  27  86 E3        30.34R FOG
$$

IAZ007>011-017>019-026>030-037>042-050>054-066-181300-
   NORTHEAST IOWA

CITY           SKY/WX    TMP DP  RH WIND       PRES   REMARKS
CEDAR RAPIDS   CLEAR     28  27  96 N5        30.33R WCI  23
6HR MIN TEMP:  26; 6HR MAX TEMP:  32;

CHARLES CITY * CLOUDY    30  28  93 NE5       30.34R FOG     WCI  25
CLINTON *      CLEAR     30  28  93 N8        30.36R WCI  23
DECORAH *      MOCLDY    30  30 100 NE5       30.33S WCI  25
DUBUQUE        CLEAR     30  27  88 N6        30.33R FOG     WCI  24
6HR MIN TEMP:  28; 6HR MAX TEMP:  34;

MONTICELLO *   CLEAR     28  27  93 CALM      30.35R FOG
OELWEIN *      CLEAR    N/A N/A N/A E5        30.35R HAZE
WATERLOO       PTCLDY    25  24  96 CALM      30.35R FOG
6HR MIN TEMP:  24; 6HR MAX TEMP:  30;

$$

IAZ064-065-067-068-078-181300-
   EAST CENTRAL IOWA

CITY           SKY/WX    TMP DP  RH WIND       PRES   REMARKS
DAVENPORT      CLEAR     30  28  92 NW5       30.35R FOG     WCI  25
6HR MIN TEMP:  26; 6HR MAX TEMP:  36;

IOWA CITY      CLEAR     32  29  88 N6        30.36R FOG     WCI  26
6HR MIN TEMP:  31; 6HR MAX TEMP:  38;

MT. PLEASANT * CLEAR     32  30  93 N6        30.34R FOG     WCI  26
MUSCATINE *    CLEAR     32  30  93 NW5       30.36R FOG     WCI  27
QUAD CITIES    CLEAR     31  28  89 CALM      30.34R FOG
6HR MIN TEMP:  29; 6HR MAX TEMP:  43;

$$

IAZ062-063-075>077-085>089-095>099-181300-
   SOUTHEAST IOWA

CITY           SKY/WX    TMP DP  RH WIND       PRES   REMARKS
BURLINGTON     CLEAR     33  31  92 N5        30.32R FOG     WCI  29
6HR MIN TEMP:  32; 6HR MAX TEMP:  42;

FAIRFIELD *    CLEAR     28  27  93 CALM      30.34R FOG
FORT MADISON * CLEAR     32  30  93 N3        30.34R FOG
KEOKUK *       CLEAR     34  32  93 N5        30.33R WCI  30
OSKALOOSA *      N/A     29  28  96 NE3       30.34R FOG
CENTERVILLE *  CLEAR     32  32 100 E5        30.33R WCI  27
OTTUMWA        CLEAR     32  28  85 NE7       30.33R FOG     WCI  26
6HR MIN TEMP:  30; 6HR MAX TEMP:  38;

WASHINGTON *   CLEAR     28  28 100 NE5       30.34R FOG     WCI  23
$$

ABBREVIATIONS USED IN REMARKS
   TC - TEMPERATURES IN CELSIUS
  WCI - WIND CHILL INDEX
   HX - HEAT INDEX
  VSB - VISIBILITY
$$




USA.gov is the U.S. government's official web portal to all federal, state and local government web resources and services.